Regional Weather Roundup
Issued by NWS Grand Forks, ND

Home | Current Version | Previous Version | Text Only | Print | Product List | Glossary On
Versions: 1 2 3 4 5 6 7 8 9 10 11 12 13 14 15 16 17 18 19 20 21 22 23 24 25 26 27 28 29 30 31 32 33 34 35 36 37 38 39 40 41 42 43 44 45 46 47 48 49 50
000
ASUS43 KFGF 300310
RWRFGF
PRAIRIE TO PINES  WEATHER ROUNDUP
NATIONAL WEATHER SERVICE EASTERN NORTH DAKOTA/GRAND FORKS ND
1000 PM CDT WED JUL 29 2015

 **SATELLITE DATA USED TO AUGMENT SKY COVER AT AUTOMATED STATIONS**
 *****  WEATHER ACROSS EASTERN NORTH DAKOTA  *****

CITY           SKY/WX    TMP DP  RH WIND       PRES   REMARKS
GRAND FORKS    PTCLDY    66  58  75 W7        29.90R
GRAND FRKS AFB CLEAR     66  59  77 W7        29.91R
GRAND FRKS NWS   N/A     70 N/A N/A W7          N/A
DEVILS LAKE    PTCLDY    66  54  63 W10       29.95R
FARGO          CLEAR     70  58  65 SW12      29.94R
WAHPETON ARPT  CLEAR     63  54  72 W7        29.98S
$$

 ***** WEATHER ACROSS CENTRAL AND WESTERN NORTH DAKOTA  *****

CITY           SKY/WX    TMP DP  RH WIND       PRES   REMARKS
BISMARCK       CLEAR     70  51  51 W6        30.05R
MINOT          CLEAR     69  53  56 W10       30.01R
JAMESTOWN      CLEAR     69  52  54 W10       30.00R
MINOT AFB      CLEAR     62  59  88 W10       30.00R
GARRISON         N/A     62  55  77 NW9       30.05R
WILLISTON      PTCLDY    66  51  58 W6        30.07R
DICKINSON      CLEAR     68  46  45 NW8       30.11R
HETTINGER      PTCLDY    57  49  74 CALM      30.15R
$$

 *****  OTHER AIRPORT OBSERVATIONS IN OUR AREA  *****

CITY           SKY/WX    TMP DP  RH WIND       PRES   REMARKS
WALHALLA       FAIR      72  59  64 MISG      29.89R
GRAFTON AIRPOR FAIR      70  61  73 W10       29.89R
VALLEY CITY AR FAIR      66  57  72 W10       29.99R
CANDO          NOT AVBL
CAVALIER APRT  FAIR      68  59  73 W7        29.88R
GWINNER        FAIR      64  57  77 SW8       30.02R
SHEYENNE NWR     N/A     68  55  64 W6        29.95S
ROLLA          FAIR      63  55  77 W9        29.98R
 ***** THE ABOVE OBSERVATIONS ARE NON NWS ARE NOT QUALITY
       CONTROLLED AND MAY MIS-REPORT RAIN FOR SNOW...
$$

  *****  WEATHER ACROSS NORTHERN MINNESOTA  *****

CITY           SKY/WX    TMP DP  RH WIND       PRES   REMARKS
FLAG ISLAND    CLOUDY    70  57  64 W17       29.79R
WARROAD        PTCLDY    66  57  72 W8        29.83R
ROSEAU         CLEAR     66  55  68 W8        29.84R
HALLOCK        CLEAR     66  57  72 W7        29.86R
THF RVR FALLS  PTCLDY    66  57  72 W6        29.89R
BAUDETTE       PTCLDY    66  53  63 W12       29.81R
WASKISH        PTCLDY    70  55  60 W14G20    29.85R
CROOKSTON      CLEAR     66  57  72 W7        29.91R
$$
  *****  WEATHER ACROSS CENTRAL AND WEST MINNESOTA  *****

CITY           SKY/WX    TMP DP  RH WIND       PRES   REMARKS
FOSSTON        PTCLDY    64  55  72 SW7       29.92R
BEMIDJI        PTCLDY    68  54  60 W10       29.90R
PARK RAPIDS    PTCLDY    70  55  59 W12       29.92R
ELBOW LAKE     FAIR      67  56  68 W8        29.99R
WADENA         MOCLDY    68  55  64 W8        29.95R
DETROIT LAKES  PTCLDY    70  54  56 W9        29.97R
MOORHEAD       CLEAR     68  57  68 SW6       29.96R
FERGUS FALLS   CLEAR     66  55  68 W7        29.97R
MORRIS MN      CLEAR     66  57  72 W7        30.00R
STAPLES        PTCLDY    66  55  68 W9        29.95R
$$
  *****  WEATHER ELSEWHERE ACROSS MINNESOTA  *****

CITY           SKY/WX    TMP DP  RH WIND       PRES   REMARKS
DULUTH         PTCLDY    64  53  67 W9        29.85R
INTRNTL FALLS  MOCLDY    63  55  75 W7        29.79R
ELY            CLOUDY    68  54  60 W16G32    29.80R
CLOQUET        PTCLDY    68  52  56 SW8       29.87R
WHEATON        CLEAR     66  55  68 W7        30.02R
BRAINERD       PTCLDY    70  54  56 W12       29.93R
HIBBING        PTCLDY    67  51  56 W6        29.84R
ALEXANDRIA     CLEAR     70  56  61 W10       30.01R
SAINT CLOUD    CLEAR     69  55  60 W8        29.96R
MINNEAPOLIS    CLEAR     75  55  49 W8        29.97R
$$

  *****  WEATHER ACROSS SOUTH DAKOTA  *****

CITY           SKY/WX    TMP DP  RH WIND       PRES   REMARKS
SIOUX FALLS    CLEAR     70  60  70 CALM      30.09R
BROOKINGS      CLEAR     70  55  60 W6        30.10R
WATERTOWN      CLEAR     64  54  69 W7        30.07R
HURON          CLEAR     69  59  70 CALM      30.07R
SISSETON         N/A     67  56  67 W7        30.02R
ABERDEEN       CLEAR     63  55  75 SW5       30.05R
MITCHELL       CLEAR     69  56  62 N5        30.08S
PIERRE         CLEAR     75  42  30 SW7       30.08R
MOBRIDGE       CLEAR     63  57  81 CALM      30.06R
RAPID CITY     CLEAR     62  51  67 NE8       30.18R
$$

  *****  SOME WEATHER IN NEARBY STATES *****

CITY           SKY/WX    TMP DP  RH WIND       PRES   REMARKS
GLASGOW MT     CLEAR     72  47  40 W6        30.07R
GREAT FALLS MT CLEAR     68  42  38 SW9       30.15R
CHEYENNE WY    PTCLDY    69  49  48 SE9       30.32R
SCOTTSBLUFF NE PTCLDY    71  58  63 MISG      30.20R
OMAHA NE       CLEAR     73  61  65 SE5       30.14R
DES MOINES IA  CLEAR     73  61  65 SW7       30.12R
DAVENPORT IA   CLEAR     68  60  75 W8        30.08R
CHICAGO IL     PTCLDY    75  57  53 W9        30.01R
EAU CLAIRE WI  CLEAR     69  56  62 SW7       29.94R
LA CROSSE WI   CLEAR     73  55  53 W6        29.98R
$$

  *****  SOME NATIONAL WEATHER *****

CITY           SKY/WX    TMP DP  RH WIND       PRES   REMARKS
LA GUARDIA NY  PTCLDY    85  70  60 SW10      29.92S
RALEIGH NC     PTCLDY    81  69  67 SE6       30.00R
ATLANTA GA     MOCLDY    83  72  69 CALM      30.00R
NEW ORLEANS LA TSTM      80  72  76 CALM      30.06R
OKLAHOMA CITY  PTCLDY    85  72  65 E7        30.07R HX  91
ALBUQUERQUE NM CLOUDY    71  59  65 SE6       30.31R
SALT LAKE CITY PTCLDY    74  39  28 W8        30.20S
LOS ANGELES CA MOCLDY    70  64  83 W13       29.94R
BOISE ID       CLEAR     83  33  16 NW7       30.13S
SEATTLE WA     CLEAR     82  48  30 N12       30.09S
$$

*** WEATHER ACROSS MANITOBA...SASKATCHEWAN AND ONTARIO ***
                ***ONTARIO***

CITY           SKY/WX    TMP DP  RH WIND       PRES   REMARKS
GERALDTON      DRIZZLE   63  61  94 W13G21    29.52S FOG
THUNDER BAY    PTCLDY    68  57  68 W14G20    29.65S
SIOUX LOOKOUT  NOT AVBL
TORONTO        PTCLDY    81  63  54 SW9       29.83S
BIG TROUT LK   LGT RAIN  61  59  94 NW18G28   29.33R FOG
PICKLE LAKE    NOT AVBL
DRYDEN         CLOUDY    63  55  77 W22G30    29.66R
KENORA         MOCLDY    63  57  82 NW12G22   29.76R
$$
                *** MANITOBA***

CITY           SKY/WX    TMP DP  RH WIND       PRES   REMARKS
BRANDON        PTCLDY    61  57  88 W8        29.92R
DAUPHIN        PTCLDY    66  59  77 W10       29.86R
ISLAND LAKE    LGT RAIN  59  55  88 NW17      29.63R
PILOT MOUND      N/A     64  55  72 W5          N/A
THE PAS        PTCLDY    63  59  88 S3        29.80R
THOMPSON       MOCLDY    61  57  88 NW5       29.71R
WINNIPEG       PTCLDY    59  57  94 W8        29.84R
LYNN LAKE        N/A    N/A N/A N/A MISG        N/A
CHURCHILL      FOG       48  48 100 N18       29.62R VSB 3/4
GILLAM         MOCLDY    55  54  94 N22G29    29.61R
$$
                ***SASKATCHEWAN***

CITY           SKY/WX    TMP DP  RH WIND       PRES   REMARKS
ESTEVAN        NOT AVBL
KINDERSLEY     PTCLDY    59  55  88 S6        30.06R
LLOYDMINSTER   MOCLDY    61  50  67 W9        30.03S
PRINCE ALBERT  PTCLDY    63  55  77 W6        29.92R
REGINA         MOCLDY    64  54  68 W10       30.02R
YORKTON        CLEAR     63  55  77 W8        29.94R
N. BATTLEFORD  CLEAR     66  48  52 W8        30.01R
LA RONGE       NOT AVBL
SASKATOON      MOCLDY    63  52  67 W10       30.00R
SWIFT CURRENT  MOCLDY    59  54  82 N12G17    30.08S
$$
NOTE: THESE ARE AUTOMATED STATIONS WITH LIMITED QUALITY CONTROL
      "FAIR" INDICATES FEW OR NO CLOUDS BELOW 12,000 FEET WITH NO
      SIGNIFICANT WEATHER AND/OR OBSTRUCTIONS TO VISIBILITY.
      SKY/WX - SKY CONDITION AND SIGNIFICANT WEATHER.
      TMP - AIR TEMPERATURE.    DP   - DEWPOINT TEMPERATURE.
      RH  - RELATIVE HUMIDITY.  PRES - PRESSURE.
      HX  - HEAT INDEX.         WCI  - WIND CHILL INDEX.
$


USA.gov is the U.S. government's official web portal to all federal, state and local government web resources and services.